Regional Weather Roundup
Issued by NWS

Home | Current Version | Previous Version | Graphics & Text | Print | Product List | Glossary On
Versions: 1 2 3 4 5 6 7 8 9 10 11 12 13 14 15 16 17 18 19 20 21 22 23 24 25 26 27 28 29 30 31 32 33 34 35 36 37 38 39 40 41 42 43 44 45 46 47 48 49 50
268
ASUS44 KLIX 200601
RWRLA
LOUISIANA WEATHER ROUNDUP
NATIONAL WEATHER SERVICE NEW ORLEANS LA
100 AM CDT MON OCT 20 2014

NOTE: "FAIR" INDICATES FEW OR NO CLOUDS BELOW 12,000 FEET WITH NO
      SIGNIFICANT WEATHER AND/OR OBSTRUCTIONS TO VISIBILITY.
      SKY/WX - SKY CONDITION AND SIGNIFICANT WEATHER.
      TMP - AIR TEMPERATURE.    DP   - DEWPOINT TEMPERATURE.
      RH  - RELATIVE HUMIDITY.  PRES - PRESSURE.
      HX  - HEAT INDEX.         WCI  - WIND CHILL INDEX.

*  THESE STATIONS ARE NOT NWS OR FAA STATIONS AND ARE NOT UNDER
   NWS QUALITY CONTROL.

LAZ040-048-061>063-065-066-069-200700-
SOUTHEAST LOUISIANA

CITY           SKY/WX    TMP DP  RH WIND       PRES   REMARKS
N.O. AUDUBON     N/A     64  59  83 MISG        N/A
6HR MIN TEMP:  62; 6HR MAX TEMP:  72;

N.O. INTL ARPT CLEAR     61  56  83 E5        30.05F
6HR MIN TEMP:  60; 6HR MAX TEMP:  71;

N.O. LAKEFRONT CLEAR     66  58  75 E5        30.06F
6HR MIN TEMP:  65; 6HR MAX TEMP:  70;

N.O. DOWNTOWN* FAIR      68  55  64 CALM      30.06F
6HR MIN TEMP:  68; 6HR MAX TEMP:  72;

SLIDELL        CLEAR     53  50  89 CALM      30.06S
6HR MIN TEMP:  53; 6HR MAX TEMP:  64;

BATON ROUGE    CLEAR     55  53  93 NE3       30.06F
6HR MIN TEMP:  55; 6HR MAX TEMP:  66;

BOOTHVILLE     CLEAR     71  59  65 E5        30.05F
6HR MIN TEMP:  71; 6HR MAX TEMP:  72;

BELLE CHASSE   CLEAR     57  53  86 CALM      30.05F
6HR MIN TEMP:  57; 6HR MAX TEMP:  64;

BOGALUSA*        N/A     50  47  88 CALM      30.08F
6HR MIN TEMP:  50; 6HR MAX TEMP:  62;

NEW ROADS*     FAIR      55  53  96 CALM      30.06F
6HR MIN TEMP:  55; 6HR MAX TEMP:  66;

GONZALES*      FAIR      57  57 100 CALM      30.05F
6HR MIN TEMP:  57; 6HR MAX TEMP:  65;

HAMMOND*       NOT AVBL
HOUMA*         CLEAR     60  59  98 NE3       30.05F FOG
6HR MIN TEMP:  60; 6HR MAX TEMP:  69;

PORT FOURCHON* CLEAR     72  63  73 NE8       30.07F

$$

LAZ041-044-053-054-200700-
SOUTHWEST LOUISIANA

CITY           SKY/WX    TMP DP  RH WIND       PRES   REMARKS
LAKE CHARLES   CLEAR     60  54  80 NE5       30.05F
6HR MIN TEMP:  60; 6HR MAX TEMP:  69;

LAFAYETTE      CLEAR     59  56  89 NE3       30.06S
6HR MIN TEMP:  59; 6HR MAX TEMP:  69;

PATTERSON      NOT AVBL
SALT POINT       N/A     66  62  87 CALM      30.04F
6HR MIN TEMP:  66; 6HR MAX TEMP:  74;

NEW IBERIA     CLEAR     61  57  87 CALM      30.06S
6HR MIN TEMP:  60; 6HR MAX TEMP:  71;

CHENAULT AIRPK CLEAR     57  54  89 CALM      30.06F
6HR MIN TEMP:  57; 6HR MAX TEMP:  70;


$$

LAZ027-028-200700-
CENTRAL LOUISIANA

CITY           SKY/WX    TMP DP  RH WIND       PRES   REMARKS
FORT POLK      CLEAR     58  52  81 E3        30.06F
6HR MIN TEMP:  57; 6HR MAX TEMP:  65;

ALEXANDRIA INT CLEAR     52  51  97 CALM      30.06F
6HR MIN TEMP:  52; 6HR MAX TEMP:  61;

ALEXANDRIA     PTCLDY    49  48  97 CALM      30.07F
6HR MIN TEMP:  49; 6HR MAX TEMP:  61;


$$

LAZ001-002-200700-
NORTHWEST LOUISIANA

CITY           SKY/WX    TMP DP  RH WIND       PRES   REMARKS
SHREVEPORT     CLEAR     55  51  86 CALM      30.07F
6HR MIN TEMP:  53; 6HR MAX TEMP:  66;

BARKSDALE AFB  CLEAR     53  51  91 CALM      30.08F
6HR MIN TEMP:  53; 6HR MAX TEMP:  64;

DTN SHREVEPORT CLEAR     55  50  83 CALM      30.08S
6HR MIN TEMP:  52; 6HR MAX TEMP:  64;


$$

LAZ014-016-200700-
NORTHEAST LOUISIANA

CITY           SKY/WX    TMP DP  RH WIND       PRES   REMARKS
MONROE         CLEAR     48  46  93 CALM      30.09F FOG
6HR MIN TEMP:  47; 6HR MAX TEMP:  60;

TALLULAH       CLEAR     43  42  97 CALM      30.09F
6HR MIN TEMP:  43; 6HR MAX TEMP:  58;


$$




USA.gov is the U.S. government's official web portal to all federal, state and local government web resources and services.